Showing default

COSMOS 2553, 51511

Orbit data source: Space-Track

COSMOS 2553, 51511 is a payload satellite owned by VVKO VKS (CIS) in LEO that was launched on Sat, 05 Feb 2022 UTC via a SOYUZ-2-1A launch vehicle from the Plesetsk Missile And Space Complex (PKMTR). Payload-class satellites include a variety of spacecraft equipped with specific instruments for various scientific and technological missions. These include communications satellites like Starlink; space stations such as the ISS; scientific satellites like the Hubble; Earth observation satellites from companies like Planet Labs, Umbra, and HawkEye 360; GPS; miniature CubeSats for education and research; and military/defense satellites.

Loading next visibility...
Identifier
51511, 2022-011A
Orbit
LEO
Last TLE update
10 hours ago
Origin
Manufacturer
Resehetnev ISS
Mission
Non-operational Defense Radar Imaging
Bus & Motor
MERIDIAN?, Unknown motor
Mass
~2,000 kg wet, ~2,000 kg dry
Launch date (UTC)
2022-02-05 (3 years ago)
Launch vehicle
SOYUZ-2-1A
Launch site
Plesetsk Missile And Space Complex (PKMTR)
Object type
Payload
Rocket body
Debris
Shape & HBR
Box + 2 Pan, 10 m
Radar Cross Section
14.304 m², Large (>1 m²)

Expand to show TLE details & history

TLE from 10 hours ago
0 COSMOS 2553
1 51511U 22011A   25189.88946710 -.00000047  00000-0 -33589-3 0  9991
2 51511  67.0899 160.8036 0004061 267.2081  92.8397 11.32845317141554
Epoch: 2025-07-08T21:20Z
TLE epoch observation values (Epoch: 2025-07-08T21:20:49.957Z)
Latitude
-0.00002°
Longitude
-86.48254°
Altitude
1,998.284 km
Speed
6.9 km/s
True Right ascension
10h 43m 12s
True Declination
0° 00' 00"
Sunlit
Object was in daylight at epoch
Visualization orbit readout
Latitude
-28.76914°
Longitude
-100.48492°
Altitude
2,004.412 km
Speed
6.897 km/s
Apparent Right ascension
09h 02m 32s
Apparent Declination
-34° 11' 56"
Sunlit
Object is in daylight
Visualization observer readout
Local Sidereal Time
19:54:56
Azimuth
287.696° WNW
Elevation
-75.383°
Doppler factor
1
Orbital elements
Apogee altitude
1,998.255 km
Perigee altitude
1,991.455 km
Semi-major axis
8,372.992 km
Eccentricity
0.00041
Inclination
67.0899°
RAAN
160.8036°
Arg. of periapsis
267.2081°
True anomaly
Unknown
Mean anomaly
92.8397°
Eccentric anomaly
Unknown
Mean motion
2.83284 °/min
Orbital period
127.08 mins
BSTAR
-0.00033589
Loading maneuver chart data...
Loading SW <> Apogee altitude chart data...
Loading historical data...
Loading historical data...
Loading historical data...
Loading historical data...
Loading historical data...
Loading historical data...
Loading historical data...
Other satellites on launch #11 in the year 2022 (2022-02-05 UTC)

COSMOS 2553 Visibility forecast

Observer location: undefined°, undefined°

Span
Click to sort rows by Start time (UTC) header in descending order
Start Az.
Max El. time (UTC)
Max El. Az.
Max El.
End time (UTC)
End Az.
22 mins2025-07-09 08:32:23.734Z333.268° NNW2025-07-09 08:43:23.734Z49.27° ENE43.797°2025-07-09 08:54:23.734Z143.408° SSE
16 mins2025-07-09 10:46:23.734Z307.989° NW2025-07-09 10:53:23.734Z263.74° W26.243°2025-07-09 11:02:23.734Z207.125° SW
20 mins2025-07-09 22:51:23.734Z182.163° SSW2025-07-09 23:00:23.734Z115.12° SE40.46°2025-07-09 23:11:23.734Z35.305° NE
19 mins2025-07-10 01:03:23.734Z247.439° WSW2025-07-10 01:12:23.734Z312.349° NW34.505°2025-07-10 01:22:23.734Z20.725° NNE
12 mins2025-07-10 03:22:23.734Z311.95° NW2025-07-10 03:28:23.734Z346.682° N16.75°2025-07-10 03:34:23.734Z20.573° NNE
14 mins2025-07-10 05:39:23.734Z344.096° N2025-07-10 05:46:23.734Z25.783° NE18.969°2025-07-10 05:53:23.734Z65.607° ENE
|